Location: Alpine
(43.1636°N, 111.0180°W)
Time: 04:59:33
(UTC+00:00)

Tiros 1 despin weight - Pass Details

Date: 03 June 2022
Orbit: 591 x 639 km, 48.2° (Epoch: 30 June)

Event Time Altitude Azimuth Distance (km) Brightness Sun altitude
Rises 00:02:43 0° 261° (W) 2,898 ? 29.3°
Reaches altitude 10° 00:05:06 10° 266° (W) 1,985 ? 28.8°
Maximum altitude 00:09:35 56° 345° (NNW) 733 ? 28.0°
Drops below altitude 10° 00:14:00 10° 64° (ENE) 1,957 ? 27.2°
Sets 00:16:20 0° 69° (ENE) 2,854 ? 26.8°
